When you browse on this site, cookies collect data to enhance your experience and personalize the content and advertising you see.
Visit our Privacy Policy to learn more. By continuing to use the site, you agree to this use of cookies and data.
  • In Lithuania
  • List of Countries
  • For 7 days
  • Water Temperature
  • Satellite Maps
  • Weather Map
  • Weather Widgets
  • user-avatar
    Login

    Hourly Weather Tirana

    Today, 23 July, Tuesday

    Time Temperature Precipitation Wind Pressure Humidity
    00:00 +26°C° 0 mm 2 mps 755 mmHg 58%
    01:00 +26°C° 0 mm 1 mps 754 mmHg 58%
    02:00 +26°C° 0 mm 2 mps 754 mmHg 57%
    03:00 +25°C° 0 mm 2 mps 754 mmHg 56%
    04:00 +25°C° 0 mm 2 mps 754 mmHg 55%
    05:00 +27°C° 0 mm 2 mps 754 mmHg 52%
    06:00 +28°C° 0 mm 3 mps 754 mmHg 48%
    07:00 +30°C° 0 mm 3 mps 754 mmHg 44%
    08:00 +33°C° 0 mm 3 mps 754 mmHg 40%
    09:00 +35°C° 0 mm 3 mps 754 mmHg 36%
    10:00 +37°C° 0 mm 3 mps 754 mmHg 31%
    11:00 +37°C° 0 mm 4 mps 753 mmHg 30%
    12:00 +39°C° 0 mm 6 mps 753 mmHg 29%
    13:00 +39°C° 0 mm 7 mps 753 mmHg 28%
    14:00 +39°C° 0 mm 7 mps 753 mmHg 30%
    15:00 +38°C° 0 mm 8 mps 752 mmHg 31%
    16:00 +37°C° 0 mm 8 mps 752 mmHg 33%
    17:00 +34°C° 0 mm 8 mps 752 mmHg 39%
    18:00 +30°C° 0 mm 7 mps 752 mmHg 46%
    19:00 +28°C° 0 mm 6 mps 752 mmHg 53%
    20:00 +28°C° 0 mm 5 mps 752 mmHg 55%
    21:00 +27°C° 0 mm 4 mps 753 mmHg 57%
    22:00 +26°C° 0 mm 3 mps 753 mmHg 60%
    23:00 +26°C° 0 mm 2 mps 753 mmHg 59%

    Tomorrow, 24 July, Wednesday

    Time Temperature Precipitation Wind Pressure Humidity
    00:00 +26°C° 0 mm 2 mps 753 mmHg 59%
    01:00 +25°C° 0 mm 2 mps 752 mmHg 59%
    02:00 +25°C° 0 mm 2 mps 752 mmHg 57%
    03:00 +25°C° 0 mm 3 mps 752 mmHg 55%
    04:00 +24°C° 0 mm 3 mps 752 mmHg 53%
    05:00 +26°C° 0 mm 3 mps 752 mmHg 49%
    06:00 +28°C° 0 mm 3 mps 752 mmHg 45%
    07:00 +29°C° 0 mm 4 mps 752 mmHg 41%
    08:00 +32°C° 0 mm 4 mps 752 mmHg 37%
    09:00 +34°C° 0 mm 4 mps 752 mmHg 33%
    10:00 +36°C° 0 mm 5 mps 752 mmHg 29%
    11:00 +38°C° 0 mm 6 mps 752 mmHg 28%
    12:00 +38°C° 0 mm 6 mps 752 mmHg 26%
    13:00 +39°C° 0 mm 7 mps 752 mmHg 25%
    14:00 +39°C° 0 mm 7 mps 751 mmHg 26%
    15:00 +39°C° 0 mm 8 mps 751 mmHg 27%
    16:00 +39°C° 0 mm 8 mps 751 mmHg 27%
    17:00 +35°C° 0 mm 8 mps 751 mmHg 33%
    18:00 +33°C° 0 mm 7 mps 751 mmHg 39%
    19:00 +30°C° 0 mm 7 mps 752 mmHg 45%
    20:00 +29°C° 0 mm 6 mps 752 mmHg 48%
    21:00 +28°C° 0 mm 5 mps 752 mmHg 52%
    22:00 +27°C° 0 mm 4 mps 753 mmHg 55%
    23:00 +26°C° 0 mm 3 mps 753 mmHg 56%

    Day after tomorrow, 25 July, Thursday

    Time Temperature Precipitation Wind Pressure Humidity
    00:00 +26°C° 0 mm 3 mps 753 mmHg 56%
    01:00 +25°C° 0 mm 3 mps 753 mmHg 56%
    02:00 +25°C° 0 mm 3 mps 753 mmHg 56%
    03:00 +24°C° 0 mm 3 mps 753 mmHg 56%
    04:00 +24°C° 0 mm 3 mps 753 mmHg 56%
    05:00 +26°C° 0 mm 3 mps 753 mmHg 52%
    06:00 +27°C° 0 mm 3 mps 753 mmHg 48%
    07:00 +29°C° 0 mm 2 mps 753 mmHg 44%
    08:00 +31°C° 0 mm 2 mps 753 mmHg 40%
    09:00 +34°C° 0 mm 2 mps 754 mmHg 35%
    10:00 +36°C° 0 mm 2 mps 754 mmHg 31%
    11:00 +36°C° 0 mm 2 mps 753 mmHg 32%
    12:00 +36°C° 0 mm 3 mps 753 mmHg 33%
    13:00 +36°C° 0 mm 4 mps 753 mmHg 34%
    14:00 +35°C° 0 mm 4 mps 753 mmHg 36%
    15:00 +35°C° 0 mm 3 mps 753 mmHg 38%
    16:00 +34°C° 0 mm 3 mps 752 mmHg 40%
    17:00 +31°C° 0 mm 2 mps 752 mmHg 45%
    18:00 +30°C° 0 mm 2 mps 753 mmHg 51%
    19:00 +28°C° 0 mm 1 mps 753 mmHg 56%
    20:00 +27°C° 0 mm 1 mps 753 mmHg 58%
    21:00 +26°C° 0 mm 1 mps 753 mmHg 59%
    22:00 +26°C° 0 mm 1 mps 753 mmHg 61%
    23:00 +26°C° 0 mm 1 mps 753 mmHg 62%

    26 July, Friday

    Time Temperature Precipitation Wind Pressure Humidity
    00:00 +25°C° 0 mm 1 mps 753 mmHg 62%
    01:00 +25°C° 0 mm 1 mps 753 mmHg 63%
    02:00 +25°C° 0 mm 1 mps 753 mmHg 63%
    03:00 +22°C° 0 mm 0 mps 752 mmHg 64%
    04:00 +22°C° 0 mm 0 mps 752 mmHg 64%
    05:00 +26°C° 0 mm 1 mps 752 mmHg 59%
    06:00 +28°C° 0 mm 1 mps 752 mmHg 53%
    07:00 +29°C° 0 mm 1 mps 752 mmHg 48%
    08:00 +31°C° 0 mm 1 mps 752 mmHg 44%
    09:00 +34°C° 0 mm 2 mps 752 mmHg 40%
    10:00 +35°C° 0 mm 2 mps 752 mmHg 36%
    11:00 +35°C° 0 mm 3 mps 751 mmHg 36%
    12:00 +36°C° 0 mm 4 mps 751 mmHg 36%
    13:00 +36°C° 0 mm 4 mps 751 mmHg 36%
    14:00 +35°C° 0 mm 4 mps 750 mmHg 37%
    15:00 +35°C° 0 mm 3 mps 750 mmHg 38%
    16:00 +34°C° 0 mm 3 mps 750 mmHg 39%
    17:00 +31°C° 0 mm 2 mps 749 mmHg 46%
    18:00 +29°C° 0 mm 1 mps 749 mmHg 52%
    19:00 +25°C° 0 mm 0 mps 749 mmHg 59%
    20:00 +26°C° 0 mm 1 mps 750 mmHg 61%
    21:00 +26°C° 0 mm 1 mps 750 mmHg 63%
    22:00 +25°C° 0 mm 1 mps 750 mmHg 66%
    23:00 +25°C° 0 mm 1 mps 750 mmHg 67%

    27 July, Saturday

    Time Temperature Precipitation Wind Pressure Humidity
    00:00 +24°C° 0 mm 1 mps 749 mmHg 67%
    01:00 +24°C° 0 mm 1 mps 749 mmHg 68%
    02:00 +24°C° 0 mm 1 mps 749 mmHg 69%
    03:00 +23°C° 0 mm 2 mps 749 mmHg 69%
    04:00 +23°C° 0 mm 2 mps 749 mmHg 70%
    05:00 +25°C° 0 mm 2 mps 749 mmHg 63%
    06:00 +27°C° 0 mm 2 mps 749 mmHg 57%
    07:00 +29°C° 0 mm 2 mps 749 mmHg 51%
    08:00 +31°C° 0 mm 2 mps 748 mmHg 45%
    09:00 +34°C° 0 mm 3 mps 748 mmHg 40%
    10:00 +35°C° 0 mm 3 mps 748 mmHg 34%
    11:00 +35°C° 0 mm 4 mps 748 mmHg 35%
    12:00 +35°C° 0 mm 4 mps 748 mmHg 37%
    13:00 +35°C° 0 mm 4 mps 747 mmHg 38%
    14:00 +35°C° 0 mm 4 mps 747 mmHg 38%
    15:00 +34°C° 0 mm 3 mps 747 mmHg 39%
    16:00 +34°C° 0 mm 3 mps 747 mmHg 39%
    17:00 +31°C° 0 mm 3 mps 747 mmHg 45%
    18:00 +29°C° 0 mm 2 mps 747 mmHg 50%
    19:00 +27°C° 0 mm 2 mps 747 mmHg 56%
    20:00 +26°C° 0 mm 2 mps 747 mmHg 59%
    21:00 +25°C° 0 mm 2 mps 747 mmHg 63%
    22:00 +25°C° 0 mm 2 mps 747 mmHg 66%
    23:00 +24°C° 0 mm 2 mps 747 mmHg 66%

    28 July, Sunday

    Time Temperature Precipitation Wind Pressure Humidity
    00:00 +24°C° 0 mm 2 mps 747 mmHg 65%
    01:00 +24°C° 0 mm 2 mps 747 mmHg 64%
    02:00 +24°C° 0.6 mm 2 mps 747 mmHg 65%
    03:00 +24°C° 0.6 mm 2 mps 747 mmHg 65%
    04:00 +23°C° 0.6 mm 2 mps 746 mmHg 66%
    05:00 +25°C° 1 mm 2 mps 746 mmHg 61%
    06:00 +26°C° 1 mm 1 mps 746 mmHg 56%
    07:00 +28°C° 1 mm 1 mps 746 mmHg 51%
    08:00 +29°C° 0.7 mm 1 mps 746 mmHg 49%
    09:00 +30°C° 0.7 mm 1 mps 747 mmHg 48%
    10:00 +31°C° 0.7 mm 1 mps 747 mmHg 46%
    11:00 +32°C° 0 mm 2 mps 747 mmHg 42%
    12:00 +34°C° 0 mm 2 mps 746 mmHg 38%
    13:00 +35°C° 0 mm 3 mps 746 mmHg 34%
    14:00 +33°C° 0.4 mm 3 mps 746 mmHg 43%
    15:00 +32°C° 0.4 mm 4 mps 746 mmHg 52%
    16:00 +29°C° 0.4 mm 4 mps 745 mmHg 61%
    17:00 +28°C° 0.3 mm 3 mps 746 mmHg 63%
    18:00 +28°C° 0.3 mm 3 mps 746 mmHg 65%
    19:00 +27°C° 0.3 mm 2 mps 746 mmHg 67%
    20:00 +26°C° 0.7 mm 2 mps 746 mmHg 71%
    21:00 +25°C° 0.7 mm 2 mps 747 mmHg 75%
    22:00 +24°C° 0.7 mm 2 mps 747 mmHg 79%
    23:00 +24°C° 0.1 mm 2 mps 747 mmHg 79%
    Show more